Weather History for Dayton Wright, OH

Change the Weather History Date:

Thursday, November 8, 2012

  Actual Average (KFFO) Record (KFFO)
Temperature  
Mean Temperature 38 °F -  
Max Temperature 50 °F 52 °F 69 °F (2001)
Min Temperature 26 °F 34 °F 24 °F (2003)
Degree Days  
Heating Degree Days 27    
Moisture  
Dew Point 31 °F    
Average Humidity 76    
Maximum Humidity 100    
Minimum Humidity 52    
Precipitation  
Precipitation 0.00 in - - ()
Sea Level Pressure  
Sea Level Pressure 30.19 in    
Wind  
Wind Speed 3 mph (NW)    
Max Wind Speed 7 mph    
Max Gust Speed -    
Visibility 8 miles    
Events      
Averages and records for this station are not official NWS values.
T = Trace of Precipitation, MM = Missing Value Source: NWS Daily Summary

Daily Weather History Graph

Daily Weather History Graph

Search for Another Location

Airport:

Trip Planner

Search our weather history database for the weather conditions in past years. The results will help you decide how hot, cold, wet, or windy it might be!

Date:

Astronomy

Nov. 08, 2012 Rise Set
Actual Time 7:13 AM EST 5:27 PM EST
Civil Twilight 6:45 AM EST 5:55 PM EST
Nautical Twilight 6:13 AM EST 6:27 PM EST
Astronomical Twilight 5:41 AM EST 6:59 PM EST
Moon 1:09 AM EST (11/8) 2:06 PM EST (11/8)
Length of Visible Light 11h 10m
Length of Day
10h 13m
Waning Crescent, 33% of the Moon is Illuminated
Nov 8
Waning Crescent
Nov 13
New
Nov 20
First Quarter
Nov 28
Full
Dec 6
Last Quarter

Hourly Weather History & Observations

Time (EST) Temp. Windchill Dew Point Humidity Pressure Visibility Wind Dir Wind Speed Gust Speed Precip Events Conditions
12:53 AM 35.1 °F 30.1 °F 30.9 °F 85% 30.12 in 10.0 mi North 5.8 mph - N/A   Clear
1:53 AM 35.1 °F 30.1 °F 30.9 °F 85% 30.13 in 9.0 mi North 5.8 mph - N/A   Clear
2:53 AM 34.0 °F 29.8 °F 30.9 °F 89% 30.15 in 8.0 mi North 4.6 mph - N/A   Clear
3:53 AM 32.0 °F - 30.0 °F 92% 30.15 in 6.0 mi Calm Calm - N/A   Clear
4:53 AM 30.9 °F 27.5 °F 28.9 °F 92% 30.16 in 4.0 mi ENE 3.5 mph - N/A   Clear
5:53 AM 30.9 °F 26.2 °F 28.9 °F 92% 30.19 in 5.0 mi NW 4.6 mph - N/A   Clear
6:53 AM 28.0 °F - 28.0 °F 100% 30.21 in 3.0 mi Calm Calm - N/A   Clear
7:18 AM 26.6 °F 21.2 °F 26.6 °F 100% 30.19 in 2.0 mi NE 4.6 mph - N/A   Clear
7:53 AM 30.0 °F 25.2 °F 28.9 °F 96% 30.22 in 2.5 mi ENE 4.6 mph - N/A   Clear
8:29 AM 33.8 °F - 30.2 °F 87% 30.22 in 3.0 mi Calm Calm - N/A   Clear
8:53 AM 36.0 °F - 36.0 °F 100% 30.25 in 4.0 mi Calm Calm - N/A   Clear
9:53 AM 42.1 °F - 35.1 °F 76% 30.25 in 10.0 mi Calm Calm - N/A   Clear
10:53 AM 44.1 °F 42.5 °F 33.1 °F 65% 30.25 in 10.0 mi WSW 3.5 mph - N/A   Clear
11:53 AM 46.0 °F 44.8 °F 30.9 °F 56% 30.24 in 10.0 mi Variable 3.5 mph - N/A   Clear
12:53 PM 48.9 °F - 33.1 °F 54% 30.21 in 10.0 mi Calm Calm - N/A   Clear
1:53 PM 48.9 °F - 33.1 °F 54% 30.20 in 10.0 mi Variable 4.6 mph - N/A   Clear
2:53 PM 50.0 °F - 33.1 °F 52% 30.18 in 10.0 mi WSW 5.8 mph - N/A   Clear
3:53 PM 50.0 °F - 33.1 °F 52% 30.18 in 10.0 mi WSW 6.9 mph - N/A   Clear
4:53 PM 48.9 °F - 33.1 °F 54% 30.18 in 10.0 mi SW 6.9 mph - N/A   Clear
5:53 PM 45.0 °F 43.5 °F 33.1 °F 63% 30.19 in 10.0 mi South 3.5 mph - N/A   Clear
6:53 PM 44.1 °F 42.5 °F 32.0 °F 63% 30.19 in 10.0 mi South 3.5 mph - N/A   Clear
7:53 PM 42.1 °F - 30.9 °F 65% 30.19 in 10.0 mi Calm Calm - N/A   Clear
8:53 PM 42.1 °F - 30.9 °F 65% 30.18 in 10.0 mi Calm Calm - N/A   Clear
9:53 PM 39.0 °F - 30.9 °F 73% 30.18 in 10.0 mi Calm Calm - N/A   Clear
10:53 PM 39.0 °F - 30.9 °F 73% 30.18 in 10.0 mi Calm Calm - N/A   Clear
11:53 PM 34.0 °F - 28.9 °F 82% 30.19 in 10.0 mi Calm Calm - N/A   Clear